STARLINK-33651, 63588

Orbit data source: Space-Track

STARLINK-33651, 63588 is a payload satellite owned by SpaceX/Seattle (US) in LEO that was launched on Mon, 14 Apr 2025 UTC via an FALCON 9 launch vehicle from the Air Force Eastern Test Range (AFETR). Payload-class satellites include a variety of spacecraft equipped with specific instruments for various scientific and technological missions. These include communications satellites like Starlink; space stations such as the ISS; scientific satellites like the Hubble; Earth observation satellites from companies like Planet Labs, Umbra, and HawkEye 360; GPS; miniature CubeSats for education and research; and military/defense satellites.

Loading next visibility...
Identifier
63588, 2025-076V
Orbit
LEO
Country
Flag of USUS
Related business
Manufacturer
SpaceX/Seattle
Mission
Operational Commercial Communications
Bus & Motor
STARLINK V2MO, Unknown motor
Mass
575 kg wet, ~530 kg dry
Launch date (UTC)
2025-04-14 (6 months ago)
Launch vehicle
FALCON 9
Launch site
Air Force Eastern Test Range (AFETR)
Object type
Payload
Rocket body
Debris
Shape & HBR
Box + 2 Pan, 17.7 m
Radar Cross Section
36.964 m², Large (>1 m²)

Expand to show TLE details & history
Last TLE update: 17 hours ago

TLE from 17 hours ago
0 STARLINK-33651
1 63588U 25076V   25286.78848655  .00032173  00000-0  11729-2 0  9992
2 63588  43.0030  71.3209 0002368 265.3082  94.7499 15.27598996 29362
Epoch: 2025-10-13T18:55Z
TLE epoch observation values (Epoch: 2025-10-13T18:55:25.237Z)
Latitude
-0.00006°
Longitude
124.87945°
Altitude
482.903 km
Speed
7.626 km/s
True Right ascension
04h 45m 17s
True Declination
0° 00' 00"
Sunlit
Object was in full shadow at epoch
Visualization orbit readout
Latitude
Unknown
Longitude
Unknown
Altitude
Unknown
Speed
Unknown
Apparent Right ascension
Unknown
Apparent Declination
Unknown
Sunlit
N/A
Visualization observer readout
Local Sidereal Time
06:27:27
Azimuth
Unknown
Elevation
Unknown
Doppler factor
Unknown
Orbital elements
Apogee altitude
486.562 km
Perigee altitude
483.312 km
Semi-major axis
6,863.074 km
Eccentricity
0.00024
Inclination
43.003°
RAAN
71.3209°
Arg. of periapsis
265.3082°
True anomaly
94.77694°
Mean anomaly
94.7499°
Eccentric anomaly
94.76342°
Mean motion
3.81738 °/min
Orbital period
94.31 mins
BSTAR
0.0011729
Loading maneuver chart data...
Computing Atmospheric mass density...
Loading historical data...
Loading historical data...
Loading historical data...
Loading historical data...
Loading historical data...
Loading historical data...
Loading historical data...

Documentation

Showing up to 5 results
|